Time,TemperatureF,DewpointF,PressureIn,WindDirection,WindDirectionDegrees,WindSpeedMPH,WindSpeedGustMPH,Humidity,HourlyPrecipIn,Conditions,Clouds,dailyrainin,SoftwareType,DateUTC
2013-09-30 00:01:00,49.7,50.0,30.16,NNW,337,2.1,4.0,99,0.00,,,0.00,Rainwise IP-100,2013-09-30 04:01:00,
2013-09-30 00:06:00,49.5,50.0,30.17,NNW,337,2.6,4.0,99,0.00,,,0.00,Rainwise IP-100,2013-09-30 04:06:00,
2013-09-30 00:11:00,49.3,49.0,30.16,NNW,337,1.4,2.0,99,0.00,,,0.00,Rainwise IP-100,2013-09-30 04:11:00,
2013-09-30 00:16:00,49.1,49.0,30.17,NNW,337,0.0,2.0,99,0.00,,,0.00,Rainwise IP-100,2013-09-30 04:16:00,
2013-09-30 00:21:00,48.9,49.0,30.17,WNW,292,0.0,1.0,99,0.00,,,0.00,Rainwise IP-100,2013-09-30 04:21:00,
2013-09-30 00:26:00,48.8,49.0,30.17,WSW,247,0.0,4.0,100,0.00,,,0.00,Rainwise IP-100,2013-09-30 04:26:00,
2013-09-30 00:31:00,49.2,49.0,30.17,WSW,247,3.5,4.0,100,0.00,,,0.00,Rainwise IP-100,2013-09-30 04:31:00,
2013-09-30 00:36:00,49.8,50.0,30.17,WSW,247,2.8,6.0,100,0.00,,,0.00,Rainwise IP-100,2013-09-30 04:36:00,
2013-09-30 00:41:00,50.0,50.0,30.17,SSW,202,2.8,5.0,100,0.00,,,0.00,Rainwise IP-100,2013-09-30 04:41:00,
2013-09-30 00:46:00,49.9,50.0,30.18,WSW,247,2.3,6.0,100,0.00,,,0.00,Rainwise IP-100,2013-09-30 04:46:00,
2013-09-30 00:51:00,49.9,50.0,30.18,WSW,247,0.0,5.0,100,0.00,,,0.00,Rainwise IP-100,2013-09-30 04:51:00,
2013-09-30 00:56:00,49.8,50.0,30.18,WSW,247,0.0,4.0,100,0.00,,,0.00,Rainwise IP-100,2013-09-30 04:56:00,
2013-09-30 01:01:00,49.6,50.0,30.18,NW,315,0.0,4.0,100,0.00,,,0.00,Rainwise IP-100,2013-09-30 05:01:00,
2013-09-30 01:06:00,49.3,49.0,30.18,NW,315,1.2,3.0,100,0.00,,,0.00,Rainwise IP-100,2013-09-30 05:06:00,
2013-09-30 01:11:00,49.1,49.0,30.18,WNW,292,1.6,3.0,100,0.00,,,0.00,Rainwise IP-100,2013-09-30 05:11:00,
2013-09-30 01:16:00,49.0,49.0,30.18,WNW,292,1.9,2.0,100,0.00,,,0.00,Rainwise IP-100,2013-09-30 05:16:00,
2013-09-30 01:21:00,48.9,49.0,30.19,WNW,292,1.4,3.0,100,0.00,,,0.00,Rainwise IP-100,2013-09-30 05:21:00,
2013-09-30 01:26:00,48.9,49.0,30.18,WNW,292,1.4,2.0,100,0.00,,,0.00,Rainwise IP-100,2013-09-30 05:26:00,
2013-09-30 01:31:00,48.9,49.0,30.19,WNW,292,1.6,2.0,100,0.00,,,0.00,Rainwise IP-100,2013-09-30 05:31:00,
2013-09-30 01:36:00,49.0,49.0,30.19,WNW,292,0.0,2.0,100,0.00,,,0.00,Rainwise IP-100,2013-09-30 05:36:00,
2013-09-30 01:41:00,49.1,49.0,30.19,WSW,247,0.0,1.0,100,0.00,,,0.00,Rainwise IP-100,2013-09-30 05:41:00,
2013-09-30 01:46:00,49.4,49.0,30.18,WSW,247,0.0,2.0,100,0.00,,,0.00,Rainwise IP-100,2013-09-30 05:46:00,
2013-09-30 01:51:00,49.7,50.0,30.17,NW,315,0.0,1.0,100,0.00,,,0.00,Rainwise IP-100,2013-09-30 05:51:00,
2013-09-30 01:53:00,49.8,50.0,30.18,NW,315,0.0,1.0,100,0.00,,,0.00,Rainwise IP-100,2013-09-30 05:53:00,
2013-09-30 01:58:00,49.9,50.0,30.17,NW,315,0.0,1.0,100,0.00,,,0.00,Rainwise IP-100,2013-09-30 05:58:00,
2013-09-30 02:03:00,50.1,50.0,30.18,NW,315,0.0,1.0,100,0.00,,,0.00,Rainwise IP-100,2013-09-30 06:03:00,
2013-09-30 02:08:00,50.2,50.0,30.17,NW,315,0.0,0.0,100,0.00,,,0.00,Rainwise IP-100,2013-09-30 06:08:00,
2013-09-30 02:13:00,50.3,50.0,30.17,WSW,247,0.0,1.0,100,0.00,,,0.00,Rainwise IP-100,2013-09-30 06:13:00,
2013-09-30 02:18:00,50.5,50.0,30.16,WSW,247,0.0,0.0,100,0.00,,,0.00,Rainwise IP-100,2013-09-30 06:18:00,
2013-09-30 02:23:00,50.6,50.0,30.17,WSW,247,0.0,0.0,100,0.00,,,0.00,Rainwise IP-100,2013-09-30 06:23:00,
2013-09-30 02:28:00,50.7,50.0,30.16,NNW,337,2.1,3.0,100,0.00,,,0.00,Rainwise IP-100,2013-09-30 06:28:00,
2013-09-30 02:33:00,50.9,51.0,30.16,NNW,337,2.1,2.1,100,0.00,,,0.00,Rainwise IP-100,2013-09-30 06:33:00,
2013-09-30 02:38:00,51.0,51.0,30.16,NNW,337,0.0,2.0,100,0.00,,,0.00,Rainwise IP-100,2013-09-30 06:38:00,
2013-09-30 02:43:00,51.0,51.0,30.16,NW,315,1.6,2.0,100,0.00,,,0.00,Rainwise IP-100,2013-09-30 06:43:00,
2013-09-30 02:48:00,51.1,51.0,30.16,WNW,292,1.2,2.0,100,0.00,,,0.00,Rainwise IP-100,2013-09-30 06:48:00,
2013-09-30 02:53:00,51.1,51.0,30.16,WNW,292,0.0,1.0,100,0.00,,,0.00,Rainwise IP-100,2013-09-30 06:53:00,
2013-09-30 02:58:00,51.2,51.0,30.16,WNW,292,1.6,3.0,100,0.00,,,0.00,Rainwise IP-100,2013-09-30 06:58:00,
2013-09-30 03:03:00,51.3,51.0,30.16,WSW,247,0.0,5.0,100,0.00,,,0.00,Rainwise IP-100,2013-09-30 07:03:00,
2013-09-30 03:08:00,51.4,51.0,30.16,NNW,337,0.0,3.0,100,0.00,,,0.00,Rainwise IP-100,2013-09-30 07:08:00,
2013-09-30 03:13:00,51.4,51.0,30.16,West,270,1.2,4.0,100,0.00,,,0.00,Rainwise IP-100,2013-09-30 07:13:00,
2013-09-30 03:18:00,51.5,52.0,30.17,NNE,22,0.0,2.0,100,0.00,,,0.00,Rainwise IP-100,2013-09-30 07:18:00,
2013-09-30 03:23:00,51.4,51.0,30.16,WNW,292,1.2,6.0,100,0.00,,,0.00,Rainwise IP-100,2013-09-30 07:23:00,
2013-09-30 03:28:00,51.4,51.0,30.17,WSW,247,1.6,4.0,100,0.00,,,0.00,Rainwise IP-100,2013-09-30 07:28:00,
2013-09-30 03:33:00,51.4,51.0,30.17,SSW,202,1.9,4.0,100,0.00,,,0.00,Rainwise IP-100,2013-09-30 07:33:00,
2013-09-30 03:38:00,51.4,51.0,30.17,WSW,247,1.4,3.0,100,0.00,,,0.00,Rainwise IP-100,2013-09-30 07:38:00,
2013-09-30 03:43:00,51.4,51.0,30.17,WSW,247,1.4,3.0,100,0.00,,,0.00,Rainwise IP-100,2013-09-30 07:43:00,
2013-09-30 03:48:00,51.4,51.0,30.17,NNW,337,2.3,2.3,100,0.00,,,0.00,Rainwise IP-100,2013-09-30 07:48:00,
2013-09-30 03:53:00,51.4,51.0,30.17,SSW,202,0.0,5.0,100,0.00,,,0.00,Rainwise IP-100,2013-09-30 07:53:00,
2013-09-30 03:58:00,51.3,51.0,30.17,WSW,247,0.0,3.0,100,0.00,,,0.00,Rainwise IP-100,2013-09-30 07:58:00,
2013-09-30 04:03:00,51.3,51.0,30.17,WSW,247,3.0,3.0,100,0.00,,,0.00,Rainwise IP-100,2013-09-30 08:03:00,
2013-09-30 04:08:00,51.3,51.0,30.18,WSW,247,0.0,4.0,100,0.00,,,0.00,Rainwise IP-100,2013-09-30 08:08:00,
2013-09-30 04:13:00,51.3,51.0,30.17,WSW,247,0.0,1.0,100,0.00,,,0.00,Rainwise IP-100,2013-09-30 08:13:00,
2013-09-30 04:18:00,51.3,51.0,30.17,WSW,247,0.0,0.0,100,0.00,,,0.00,Rainwise IP-100,2013-09-30 08:18:00,
2013-09-30 04:23:00,51.3,51.0,30.18,NW,315,1.9,2.0,100,0.00,,,0.00,Rainwise IP-100,2013-09-30 08:23:00,
2013-09-30 04:28:00,51.3,51.0,30.17,WNW,292,3.3,6.0,100,0.00,,,0.00,Rainwise IP-100,2013-09-30 08:28:00,
2013-09-30 04:33:00,51.3,51.0,30.17,WNW,292,1.9,7.0,100,0.00,,,0.00,Rainwise IP-100,2013-09-30 08:33:00,
2013-09-30 04:38:00,51.4,51.0,30.17,WNW,292,0.0,3.0,100,0.00,,,0.00,Rainwise IP-100,2013-09-30 08:38:00,
2013-09-30 04:43:00,51.4,51.0,30.17,NW,315,0.0,5.0,100,0.00,,,0.00,Rainwise IP-100,2013-09-30 08:43:00,
2013-09-30 04:48:00,51.4,51.0,30.17,NNW,337,3.7,4.0,100,0.00,,,0.00,Rainwise IP-100,2013-09-30 08:48:00,
2013-09-30 04:53:00,51.5,52.0,30.16,NNE,22,1.2,4.0,100,0.00,,,0.00,Rainwise IP-100,2013-09-30 08:53:00,
2013-09-30 04:58:00,51.5,52.0,30.16,North,360,1.9,4.0,100,0.00,,,0.00,Rainwise IP-100,2013-09-30 08:58:00,
2013-09-30 05:03:00,51.4,51.0,30.16,NNE,22,1.4,2.0,100,0.00,,,0.00,Rainwise IP-100,2013-09-30 09:03:00,
2013-09-30 05:08:00,51.3,51.0,30.15,NW,315,2.3,3.0,100,0.00,,,0.00,Rainwise IP-100,2013-09-30 09:08:00,
2013-09-30 05:13:00,51.1,51.0,30.15,WNW,292,0.0,3.0,100,0.00,,,0.00,Rainwise IP-100,2013-09-30 09:13:00,
2013-09-30 05:18:00,50.9,51.0,30.15,WNW,292,0.0,0.0,100,0.00,,,0.00,Rainwise IP-100,2013-09-30 09:18:00,
2013-09-30 05:23:00,50.7,50.0,30.15,WNW,292,0.0,0.0,100,0.00,,,0.00,Rainwise IP-100,2013-09-30 09:23:00,
2013-09-30 05:28:00,50.6,50.0,30.16,WNW,292,0.0,0.0,100,0.00,,,0.00,Rainwise IP-100,2013-09-30 09:28:00,
2013-09-30 05:33:00,50.5,50.0,30.15,WNW,292,0.0,0.0,100,0.00,,,0.00,Rainwise IP-100,2013-09-30 09:33:00,
2013-09-30 05:38:00,50.2,50.0,30.15,WNW,292,0.0,1.0,100,0.00,,,0.00,Rainwise IP-100,2013-09-30 09:38:00,
2013-09-30 05:43:00,50.0,50.0,30.15,NNW,337,0.0,2.0,100,0.00,,,0.00,Rainwise IP-100,2013-09-30 09:43:00,
2013-09-30 05:48:00,49.8,50.0,30.15,NNW,337,0.0,0.0,100,0.00,,,0.00,Rainwise IP-100,2013-09-30 09:48:00,
2013-09-30 05:53:00,49.5,50.0,30.15,NNW,337,0.0,0.0,100,0.00,,,0.00,Rainwise IP-100,2013-09-30 09:53:00,
2013-09-30 05:58:00,49.2,49.0,30.15,NNW,337,0.0,0.0,100,0.00,,,0.00,Rainwise IP-100,2013-09-30 09:58:00,
2013-09-30 06:03:00,49.0,49.0,30.14,WNW,292,1.4,1.4,100,0.00,,,0.00,Rainwise IP-100,2013-09-30 10:03:00,
2013-09-30 06:08:00,49.0,49.0,30.14,WNW,292,1.4,2.0,100,0.00,,,0.00,Rainwise IP-100,2013-09-30 10:08:00,
2013-09-30 06:13:00,49.0,49.0,30.15,WNW,292,0.0,3.0,100,0.00,,,0.00,Rainwise IP-100,2013-09-30 10:13:00,
2013-09-30 06:18:00,49.1,49.0,30.15,West,270,0.0,1.0,100,0.00,,,0.00,Rainwise IP-100,2013-09-30 10:18:00,
2013-09-30 06:23:00,49.0,49.0,30.15,West,270,0.0,1.0,100,0.00,,,0.00,Rainwise IP-100,2013-09-30 10:23:00,
2013-09-30 06:28:00,49.0,49.0,30.15,WSW,247,0.0,0.0,100,0.00,,,0.00,Rainwise IP-100,2013-09-30 10:28:00,
2013-09-30 06:33:00,48.7,49.0,30.15,WSW,247,0.0,0.0,100,0.00,,,0.00,Rainwise IP-100,2013-09-30 10:33:00,
2013-09-30 06:38:00,48.5,49.0,30.16,WSW,247,0.0,0.0,100,0.00,,,0.00,Rainwise IP-100,2013-09-30 10:38:00,
2013-09-30 06:43:00,48.3,48.0,30.16,WSW,247,0.0,1.0,100,0.00,,,0.00,Rainwise IP-100,2013-09-30 10:43:00,
2013-09-30 06:48:00,48.2,48.0,30.15,WSW,247,1.2,3.0,100,0.00,,,0.00,Rainwise IP-100,2013-09-30 10:48:00,
2013-09-30 06:50:00,48.1,48.0,30.15,WSW,247,1.4,2.0,100,0.00,,,0.00,Rainwise IP-100,2013-09-30 10:50:00,
2013-09-30 06:55:00,48.1,48.0,30.15,WSW,247,0.0,2.0,100,0.00,,,0.00,Rainwise IP-100,2013-09-30 10:55:00,
2013-09-30 07:00:00,48.1,48.0,30.16,SSW,202,0.0,1.0,100,0.00,,,0.00,Rainwise IP-100,2013-09-30 11:00:00,
2013-09-30 07:05:00,48.1,48.0,30.16,SSE,157,3.5,3.5,100,0.00,,,0.00,Rainwise IP-100,2013-09-30 11:05:00,
2013-09-30 07:10:00,48.2,48.0,30.16,South,180,1.9,8.0,100,0.00,,,0.00,Rainwise IP-100,2013-09-30 11:10:00,
2013-09-30 07:15:00,48.6,49.0,30.16,SSE,157,3.3,7.0,100,0.00,,,0.00,Rainwise IP-100,2013-09-30 11:15:00,
2013-09-30 07:20:00,49.0,49.0,30.16,South,180,2.6,5.0,100,0.00,,,0.00,Rainwise IP-100,2013-09-30 11:20:00,
2013-09-30 07:25:00,49.3,49.0,30.16,SW,225,0.0,5.0,100,0.00,,,0.00,Rainwise IP-100,2013-09-30 11:25:00,
2013-09-30 07:30:00,49.6,50.0,30.16,SSW,202,1.2,1.2,100,0.00,,,0.00,Rainwise IP-100,2013-09-30 11:30:00,
2013-09-30 07:35:00,49.7,50.0,30.16,SSW,202,0.0,2.0,100,0.00,,,0.00,Rainwise IP-100,2013-09-30 11:35:00,
2013-09-30 07:40:00,49.9,50.0,30.16,SSW,202,0.0,2.0,100,0.00,,,0.00,Rainwise IP-100,2013-09-30 11:40:00,
2013-09-30 07:45:00,50.2,50.0,30.16,SSW,202,1.4,1.4,100,0.00,,,0.00,Rainwise IP-100,2013-09-30 11:45:00,
2013-09-30 07:50:00,50.5,50.0,30.16,SSE,157,2.6,4.0,100,0.00,,,0.00,Rainwise IP-100,2013-09-30 11:50:00,
2013-09-30 07:55:00,50.6,50.0,30.16,SSE,157,2.8,4.0,100,0.00,,,0.00,Rainwise IP-100,2013-09-30 11:55:00,
2013-09-30 08:00:00,50.6,50.0,30.16,SSE,157,1.9,4.0,100,0.00,,,0.00,Rainwise IP-100,2013-09-30 12:00:00,
2013-09-30 08:05:00,50.7,50.0,30.16,SE,135,0.0,3.0,100,0.00,,,0.00,Rainwise IP-100,2013-09-30 12:05:00,
2013-09-30 08:10:00,51.1,51.0,30.16,WNW,292,3.3,3.3,100,0.00,,,0.00,Rainwise IP-100,2013-09-30 12:10:00,
2013-09-30 08:15:00,51.2,51.0,30.16,NW,315,0.0,3.0,100,0.00,,,0.00,Rainwise IP-100,2013-09-30 12:15:00,
2013-09-30 08:20:00,51.3,51.0,30.16,NW,315,0.0,0.0,100,0.00,,,0.00,Rainwise IP-100,2013-09-30 12:20:00,
2013-09-30 08:25:00,51.6,52.0,30.16,NW,315,1.2,0.0,100,0.00,,,0.00,Rainwise IP-100,2013-09-30 12:25:00,
2013-09-30 08:30:00,51.7,52.0,30.16,NNE,22,3.5,4.0,100,0.00,,,0.00,Rainwise IP-100,2013-09-30 12:30:00,
2013-09-30 08:35:00,51.8,52.0,30.16,NW,315,1.9,4.0,100,0.00,,,0.00,Rainwise IP-100,2013-09-30 12:35:00,
2013-09-30 08:40:00,51.8,52.0,30.16,WNW,292,4.4,6.0,100,0.00,,,0.00,Rainwise IP-100,2013-09-30 12:40:00,
2013-09-30 08:45:00,51.6,52.0,30.15,NNW,337,1.6,6.0,100,0.00,,,0.00,Rainwise IP-100,2013-09-30 12:45:00,
2013-09-30 08:50:00,51.5,52.0,30.16,NNW,337,1.6,3.0,100,0.00,,,0.00,Rainwise IP-100,2013-09-30 12:50:00,
2013-09-30 08:55:00,51.6,52.0,30.15,NW,315,3.5,4.0,100,0.00,,,0.00,Rainwise IP-100,2013-09-30 12:55:00,
2013-09-30 09:00:00,51.6,52.0,30.15,NNW,337,3.3,5.0,100,0.00,,,0.00,Rainwise IP-100,2013-09-30 13:00:00,
2013-09-30 09:05:00,51.4,51.0,30.16,WNW,292,2.6,4.0,100,0.00,,,0.00,Rainwise IP-100,2013-09-30 13:05:00,
2013-09-30 09:10:00,51.5,52.0,30.15,WNW,292,4.4,4.4,100,0.00,,,0.00,Rainwise IP-100,2013-09-30 13:10:00,
2013-09-30 09:15:00,51.6,52.0,30.15,NNW,337,3.5,5.0,100,0.00,,,0.00,Rainwise IP-100,2013-09-30 13:15:00,
2013-09-30 09:20:00,51.6,52.0,30.15,NNW,337,2.8,3.0,100,0.00,,,0.00,Rainwise IP-100,2013-09-30 13:20:00,
2013-09-30 09:25:00,51.8,52.0,30.15,NNE,22,0.0,4.0,100,0.00,,,0.00,Rainwise IP-100,2013-09-30 13:25:00,
2013-09-30 09:30:00,51.9,52.0,30.15,NNW,337,2.3,4.0,99,0.00,,,0.00,Rainwise IP-100,2013-09-30 13:30:00,
2013-09-30 09:35:00,51.9,52.0,30.15,NW,315,2.1,3.0,99,0.00,,,0.00,Rainwise IP-100,2013-09-30 13:35:00,
2013-09-30 09:40:00,51.9,52.0,30.15,NNE,22,3.0,3.0,99,0.00,,,0.00,Rainwise IP-100,2013-09-30 13:40:00,
2013-09-30 09:45:00,52.0,52.0,30.16,NNW,337,2.8,4.0,99,0.00,,,0.00,Rainwise IP-100,2013-09-30 13:45:00,
2013-09-30 09:50:00,52.3,52.0,30.16,WNW,292,3.5,4.0,99,0.00,,,0.00,Rainwise IP-100,2013-09-30 13:50:00,
2013-09-30 09:55:00,52.5,52.0,30.16,NNE,22,2.6,4.0,98,0.00,,,0.00,Rainwise IP-100,2013-09-30 13:55:00,
2013-09-30 10:00:00,52.5,52.0,30.15,ENE,67,1.9,3.0,98,0.00,,,0.00,Rainwise IP-100,2013-09-30 14:00:00,
2013-09-30 10:05:00,52.5,52.0,30.16,ENE,67,2.8,5.0,98,0.00,,,0.00,Rainwise IP-100,2013-09-30 14:05:00,
2013-09-30 10:10:00,52.3,51.0,30.16,ESE,112,2.1,4.0,98,0.00,,,0.00,Rainwise IP-100,2013-09-30 14:10:00,
2013-09-30 10:15:00,52.4,51.0,30.15,NE,45,2.1,4.0,98,0.00,,,0.00,Rainwise IP-100,2013-09-30 14:15:00,
2013-09-30 10:20:00,52.2,51.0,30.15,ENE,67,0.0,4.0,98,0.00,,,0.00,Rainwise IP-100,2013-09-30 14:20:00,
2013-09-30 10:25:00,52.1,51.0,30.15,ESE,112,4.0,6.0,98,0.00,,,0.00,Rainwise IP-100,2013-09-30 14:25:00,
2013-09-30 10:30:00,52.3,51.0,30.15,ENE,67,3.7,6.0,98,0.00,,,0.00,Rainwise IP-100,2013-09-30 14:30:00,
2013-09-30 10:35:00,52.6,52.0,30.15,SSE,157,6.5,7.0,97,0.00,,,0.00,Rainwise IP-100,2013-09-30 14:35:00,
2013-09-30 10:40:00,52.7,52.0,30.15,SE,135,4.7,6.0,97,0.00,,,0.00,Rainwise IP-100,2013-09-30 14:40:00,
2013-09-30 10:45:00,52.9,52.0,30.14,ESE,112,2.6,6.0,98,0.00,,,0.00,Rainwise IP-100,2013-09-30 14:45:00,
2013-09-30 10:50:00,53.2,52.0,30.14,ENE,67,0.0,7.0,97,0.00,,,0.00,Rainwise IP-100,2013-09-30 14:50:00,
2013-09-30 10:55:00,53.5,52.0,30.14,ENE,67,2.6,7.0,96,0.00,,,0.00,Rainwise IP-100,2013-09-30 14:55:00,
2013-09-30 11:00:00,53.5,52.0,30.14,ESE,112,6.5,7.0,96,0.00,,,0.00,Rainwise IP-100,2013-09-30 15:00:00,
2013-09-30 11:05:00,53.6,52.0,30.14,ENE,67,5.8,7.0,96,0.00,,,0.00,Rainwise IP-100,2013-09-30 15:05:00,
2013-09-30 11:10:00,53.5,52.0,30.14,ENE,67,6.1,8.0,96,0.00,,,0.00,Rainwise IP-100,2013-09-30 15:10:00,
2013-09-30 11:15:00,53.5,52.0,30.14,ENE,67,4.7,7.0,95,0.00,,,0.00,Rainwise IP-100,2013-09-30 15:15:00,
2013-09-30 11:20:00,53.6,52.0,30.14,ESE,112,3.7,9.0,95,0.00,,,0.00,Rainwise IP-100,2013-09-30 15:20:00,
2013-09-30 11:25:00,53.7,52.0,30.13,ENE,67,4.0,7.0,95,0.00,,,0.00,Rainwise IP-100,2013-09-30 15:25:00,
2013-09-30 11:30:00,53.9,53.0,30.13,ESE,112,3.3,8.0,95,0.00,,,0.00,Rainwise IP-100,2013-09-30 15:30:00,
2013-09-30 11:35:00,54.2,52.0,30.13,East,90,4.7,8.0,94,0.00,,,0.00,Rainwise IP-100,2013-09-30 15:35:00,
2013-09-30 11:40:00,54.3,52.0,30.12,ENE,67,4.9,7.0,93,0.00,,,0.00,Rainwise IP-100,2013-09-30 15:40:00,
2013-09-30 11:45:00,54.2,52.0,30.13,ESE,112,5.8,8.0,93,0.00,,,0.00,Rainwise IP-100,2013-09-30 15:45:00,
2013-09-30 11:50:00,54.5,53.0,30.13,SSW,202,1.9,9.0,93,0.00,,,0.00,Rainwise IP-100,2013-09-30 15:50:00,
2013-09-30 11:55:00,55.1,53.0,30.12,ESE,112,2.6,9.0,92,0.00,,,0.00,Rainwise IP-100,2013-09-30 15:55:00,
2013-09-30 12:00:00,55.2,53.0,30.12,SSE,157,0.0,9.0,92,0.00,,,0.00,Rainwise IP-100,2013-09-30 16:00:00,
2013-09-30 12:05:00,55.3,53.0,30.12,East,90,2.1,8.0,91,0.00,,,0.00,Rainwise IP-100,2013-09-30 16:05:00,
2013-09-30 12:10:00,55.4,53.0,30.12,ESE,112,7.0,7.0,90,0.00,,,0.00,Rainwise IP-100,2013-09-30 16:10:00,
2013-09-30 12:15:00,55.4,53.0,30.12,SSE,157,1.6,8.0,90,0.00,,,0.00,Rainwise IP-100,2013-09-30 16:15:00,
2013-09-30 12:20:00,55.9,53.0,30.12,ESE,112,9.1,9.1,90,0.00,,,0.00,Rainwise IP-100,2013-09-30 16:20:00,
2013-09-30 12:25:00,55.8,53.0,30.12,ESE,112,5.4,11.0,89,0.00,,,0.00,Rainwise IP-100,2013-09-30 16:25:00,
2013-09-30 12:30:00,55.2,52.0,30.13,ESE,112,8.4,9.0,89,0.00,,,0.00,Rainwise IP-100,2013-09-30 16:30:00,
2013-09-30 12:35:00,54.9,53.0,30.12,ESE,112,8.9,11.0,90,0.00,,,0.00,Rainwise IP-100,2013-09-30 16:35:00,
2013-09-30 12:40:00,54.8,52.0,30.12,SSE,157,6.3,10.0,90,0.00,,,0.00,Rainwise IP-100,2013-09-30 16:40:00,
2013-09-30 12:45:00,55.3,52.0,30.12,SE,135,8.4,9.0,89,0.00,,,0.00,Rainwise IP-100,2013-09-30 16:45:00,
2013-09-30 12:50:00,55.7,53.0,30.12,SSE,157,5.4,9.0,88,0.00,,,0.00,Rainwise IP-100,2013-09-30 16:50:00,
2013-09-30 12:55:00,55.8,53.0,30.11,East,90,4.4,9.0,88,0.00,,,0.00,Rainwise IP-100,2013-09-30 16:55:00,
2013-09-30 13:00:00,56.1,52.0,30.11,ESE,112,4.2,8.0,87,0.00,,,0.00,Rainwise IP-100,2013-09-30 17:00:00,
2013-09-30 13:05:00,56.0,52.0,30.11,ESE,112,6.3,8.0,87,0.00,,,0.00,Rainwise IP-100,2013-09-30 17:05:00,
2013-09-30 13:10:00,55.7,52.0,30.11,ESE,112,4.7,7.0,87,0.00,,,0.00,Rainwise IP-100,2013-09-30 17:10:00,
2013-09-30 13:15:00,55.5,52.0,30.10,ESE,112,7.2,7.2,87,0.00,,,0.00,Rainwise IP-100,2013-09-30 17:15:00,
2013-09-30 13:20:00,55.3,52.0,30.10,SE,135,2.6,8.0,88,0.00,,,0.00,Rainwise IP-100,2013-09-30 17:20:00,
2013-09-30 13:25:00,55.6,53.0,30.10,ESE,112,1.4,7.0,88,0.00,,,0.00,Rainwise IP-100,2013-09-30 17:25:00,
2013-09-30 13:30:00,56.2,53.0,30.09,SSE,157,4.0,7.0,88,0.00,,,0.00,Rainwise IP-100,2013-09-30 17:30:00,
2013-09-30 13:35:00,56.8,53.0,30.10,South,180,5.8,6.0,86,0.00,,,0.00,Rainwise IP-100,2013-09-30 17:35:00,
2013-09-30 13:40:00,57.4,53.0,30.09,SSE,157,3.3,7.0,86,0.00,,,0.00,Rainwise IP-100,2013-09-30 17:40:00,
2013-09-30 13:45:00,57.8,53.0,30.09,ESE,112,3.0,7.0,85,0.00,,,0.00,Rainwise IP-100,2013-09-30 17:45:00,
2013-09-30 13:50:00,57.9,53.0,30.09,ENE,67,1.6,5.0,84,0.00,,,0.00,Rainwise IP-100,2013-09-30 17:50:00,
2013-09-30 13:55:00,58.1,53.0,30.09,NNE,22,1.9,6.0,83,0.00,,,0.00,Rainwise IP-100,2013-09-30 17:55:00,
2013-09-30 14:00:00,58.8,53.0,30.09,ENE,67,3.7,5.0,82,0.00,,,0.00,Rainwise IP-100,2013-09-30 18:00:00,
2013-09-30 14:05:00,59.3,53.0,30.08,ESE,112,1.4,4.0,80,0.00,,,0.00,Rainwise IP-100,2013-09-30 18:05:00,
2013-09-30 14:10:00,59.1,53.0,30.09,NE,45,4.2,5.0,79,0.00,,,0.00,Rainwise IP-100,2013-09-30 18:10:00,
2013-09-30 14:15:00,58.7,53.0,30.09,ESE,112,4.7,7.0,79,0.00,,,0.00,Rainwise IP-100,2013-09-30 18:15:00,
2013-09-30 14:20:00,58.3,52.0,30.09,ESE,112,2.6,6.0,80,0.00,,,0.00,Rainwise IP-100,2013-09-30 18:20:00,
2013-09-30 14:25:00,58.6,53.0,30.08,ESE,112,2.8,4.0,80,0.00,,,0.00,Rainwise IP-100,2013-09-30 18:25:00,
2013-09-30 14:30:00,59.1,53.0,30.08,ESE,112,1.6,4.0,79,0.00,,,0.00,Rainwise IP-100,2013-09-30 18:30:00,
2013-09-30 14:35:00,59.8,53.0,30.08,ESE,112,1.2,5.0,78,0.00,,,0.00,Rainwise IP-100,2013-09-30 18:35:00,
2013-09-30 14:40:00,59.7,52.0,30.08,SSE,157,4.2,7.0,77,0.00,,,0.00,Rainwise IP-100,2013-09-30 18:40:00,
2013-09-30 14:45:00,58.4,52.0,30.08,SSE,157,3.3,7.0,80,0.00,,,0.00,Rainwise IP-100,2013-09-30 18:45:00,
2013-09-30 14:50:00,57.6,53.0,30.08,ESE,112,3.7,7.0,83,0.00,,,0.00,Rainwise IP-100,2013-09-30 18:50:00,
2013-09-30 14:55:00,58.0,53.0,30.08,ESE,112,3.5,6.0,83,0.00,,,0.00,Rainwise IP-100,2013-09-30 18:55:00,
2013-09-30 15:00:00,58.3,53.0,30.08,ESE,112,2.3,4.0,81,0.00,,,0.00,Rainwise IP-100,2013-09-30 19:00:00,
2013-09-30 15:05:00,58.8,53.0,30.07,ENE,67,0.0,3.0,80,0.00,,,0.00,Rainwise IP-100,2013-09-30 19:05:00,
2013-09-30 15:10:00,59.5,53.0,30.08,ESE,112,4.4,5.0,79,0.00,,,0.00,Rainwise IP-100,2013-09-30 19:10:00,
2013-09-30 15:15:00,59.4,53.0,30.07,ESE,112,5.4,6.0,78,0.00,,,0.00,Rainwise IP-100,2013-09-30 19:15:00,
2013-09-30 15:20:00,58.6,53.0,30.07,ESE,112,4.7,7.0,80,0.00,,,0.00,Rainwise IP-100,2013-09-30 19:20:00,
2013-09-30 15:25:00,57.9,53.0,30.07,SSE,157,4.0,7.0,82,0.00,,,0.00,Rainwise IP-100,2013-09-30 19:25:00,
2013-09-30 15:30:00,57.7,52.0,30.07,ESE,112,3.0,7.0,82,0.00,,,0.00,Rainwise IP-100,2013-09-30 19:30:00,
2013-09-30 15:35:00,57.8,52.0,30.07,ESE,112,4.2,6.0,82,0.00,,,0.00,Rainwise IP-100,2013-09-30 19:35:00,
2013-09-30 15:40:00,58.0,53.0,30.06,ESE,112,5.1,6.0,81,0.00,,,0.00,Rainwise IP-100,2013-09-30 19:40:00,
2013-09-30 15:45:00,57.8,52.0,30.06,ESE,112,5.8,7.0,82,0.00,,,0.00,Rainwise IP-100,2013-09-30 19:45:00,
2013-09-30 15:50:00,57.2,52.0,30.06,ESE,112,5.4,6.0,84,0.00,,,0.00,Rainwise IP-100,2013-09-30 19:50:00,
2013-09-30 15:55:00,57.0,53.0,30.06,SSE,157,3.0,7.0,86,0.00,,,0.00,Rainwise IP-100,2013-09-30 19:55:00,
2013-09-30 16:00:00,57.3,53.0,30.06,ESE,112,2.6,4.0,86,0.00,,,0.00,Rainwise IP-100,2013-09-30 20:00:00,
2013-09-30 16:05:00,58.1,54.0,30.06,ESE,112,2.8,5.0,85,0.00,,,0.00,Rainwise IP-100,2013-09-30 20:05:00,
2013-09-30 16:10:00,58.8,54.0,30.06,SSW,202,2.1,5.0,83,0.00,,,0.00,Rainwise IP-100,2013-09-30 20:10:00,
2013-09-30 16:15:00,59.2,53.0,30.06,ESE,112,5.1,5.1,82,0.00,,,0.00,Rainwise IP-100,2013-09-30 20:15:00,
2013-09-30 16:20:00,59.3,53.0,30.06,ESE,112,5.4,6.0,80,0.00,,,0.00,Rainwise IP-100,2013-09-30 20:20:00,
2013-09-30 16:25:00,59.2,53.0,30.06,ESE,112,2.8,7.0,79,0.00,,,0.00,Rainwise IP-100,2013-09-30 20:25:00,
2013-09-30 16:30:00,59.3,53.0,30.06,SE,135,4.4,6.0,79,0.00,,,0.00,Rainwise IP-100,2013-09-30 20:30:00,
2013-09-30 16:35:00,59.2,53.0,30.06,ESE,112,4.2,6.0,79,0.00,,,0.00,Rainwise IP-100,2013-09-30 20:35:00,
2013-09-30 16:40:00,58.8,53.0,30.06,SSE,157,3.3,7.0,79,0.00,,,0.00,Rainwise IP-100,2013-09-30 20:40:00,
2013-09-30 16:45:00,58.6,53.0,30.06,ESE,112,3.0,5.0,80,0.00,,,0.00,Rainwise IP-100,2013-09-30 20:45:00,
2013-09-30 16:50:00,58.7,53.0,30.06,ESE,112,3.0,5.0,81,0.00,,,0.00,Rainwise IP-100,2013-09-30 20:50:00,
2013-09-30 16:55:00,58.4,53.0,30.05,SSE,157,2.8,4.0,81,0.00,,,0.00,Rainwise IP-100,2013-09-30 20:55:00,
2013-09-30 17:00:00,58.4,53.0,30.05,SSE,157,2.6,3.0,82,0.00,,,0.00,Rainwise IP-100,2013-09-30 21:00:00,
2013-09-30 17:05:00,58.4,53.0,30.05,SSE,157,2.6,5.0,82,0.00,,,0.00,Rainwise IP-100,2013-09-30 21:05:00,
2013-09-30 17:10:00,58.2,53.0,30.06,SSE,157,3.7,5.0,83,0.00,,,0.00,Rainwise IP-100,2013-09-30 21:10:00,
2013-09-30 17:15:00,57.4,53.0,30.06,ESE,112,2.6,8.0,85,0.00,,,0.00,Rainwise IP-100,2013-09-30 21:15:00,
2013-09-30 17:20:00,56.2,53.0,30.06,ESE,112,2.3,8.0,88,0.00,,,0.00,Rainwise IP-100,2013-09-30 21:20:00,
2013-09-30 17:25:00,55.5,53.0,30.05,SE,135,5.6,7.0,90,0.00,,,0.00,Rainwise IP-100,2013-09-30 21:25:00,
2013-09-30 17:30:00,55.2,53.0,30.05,SSE,157,4.0,6.0,91,0.00,,,0.00,Rainwise IP-100,2013-09-30 21:30:00,
2013-09-30 17:35:00,54.9,53.0,30.05,SSE,157,4.7,5.0,92,0.00,,,0.00,Rainwise IP-100,2013-09-30 21:35:00,
2013-09-30 17:40:00,54.8,53.0,30.05,SE,135,3.5,4.0,92,0.00,,,0.00,Rainwise IP-100,2013-09-30 21:40:00,
2013-09-30 17:45:00,54.9,53.0,30.05,SE,135,2.6,5.0,93,0.00,,,0.00,Rainwise IP-100,2013-09-30 21:45:00,
2013-09-30 17:50:00,54.9,53.0,30.05,SSE,157,3.7,4.0,93,0.00,,,0.00,Rainwise IP-100,2013-09-30 21:50:00,
2013-09-30 17:55:00,54.9,53.0,30.05,SSE,157,2.6,5.0,93,0.00,,,0.00,Rainwise IP-100,2013-09-30 21:55:00,
2013-09-30 18:00:00,54.8,53.0,30.04,SSE,157,3.3,8.0,93,0.00,,,0.00,Rainwise IP-100,2013-09-30 22:00:00,
2013-09-30 18:05:00,54.5,53.0,30.05,SSW,202,3.3,7.0,93,0.00,,,0.00,Rainwise IP-100,2013-09-30 22:05:00,
2013-09-30 18:10:00,54.2,52.0,30.04,SSW,202,1.4,4.0,94,0.00,,,0.00,Rainwise IP-100,2013-09-30 22:10:00,
2013-09-30 18:15:00,54.2,52.0,30.04,SSE,157,1.4,3.0,94,0.00,,,0.00,Rainwise IP-100,2013-09-30 22:15:00,
2013-09-30 18:20:00,54.1,52.0,30.05,SSE,157,2.3,2.3,94,0.00,,,0.00,Rainwise IP-100,2013-09-30 22:20:00,
2013-09-30 18:25:00,54.1,53.0,30.04,SSE,157,2.3,3.0,95,0.00,,,0.00,Rainwise IP-100,2013-09-30 22:25:00,
2013-09-30 18:30:00,54.1,53.0,30.04,SE,135,3.5,4.0,95,0.00,,,0.00,Rainwise IP-100,2013-09-30 22:30:00,
2013-09-30 18:35:00,54.0,53.0,30.04,SSE,157,4.2,4.2,95,0.00,,,0.00,Rainwise IP-100,2013-09-30 22:35:00,
2013-09-30 18:40:00,53.7,52.0,30.04,SSE,157,3.5,6.0,95,0.00,,,0.00,Rainwise IP-100,2013-09-30 22:40:00,
2013-09-30 18:45:00,53.4,52.0,30.04,SSE,157,2.6,4.0,96,0.00,,,0.00,Rainwise IP-100,2013-09-30 22:45:00,
2013-09-30 18:50:00,53.1,52.0,30.04,SSE,157,1.6,4.0,97,0.00,,,0.00,Rainwise IP-100,2013-09-30 22:50:00,
2013-09-30 18:55:00,53.1,52.0,30.03,SSE,157,0.0,2.0,98,0.00,,,0.00,Rainwise IP-100,2013-09-30 22:55:00,
2013-09-30 19:00:00,53.0,52.0,30.04,SW,225,0.0,1.0,98,0.00,,,0.00,Rainwise IP-100,2013-09-30 23:00:00,
2013-09-30 19:05:00,53.0,52.0,30.03,SW,225,0.0,1.0,98,0.00,,,0.00,Rainwise IP-100,2013-09-30 23:05:00,
2013-09-30 19:10:00,52.9,52.0,30.03,WSW,247,0.0,0.0,98,0.00,,,0.00,Rainwise IP-100,2013-09-30 23:10:00,
2013-09-30 19:15:00,53.0,52.0,30.03,WSW,247,0.0,0.0,98,0.00,,,0.00,Rainwise IP-100,2013-09-30 23:15:00,
2013-09-30 19:20:00,53.0,52.0,30.03,WNW,292,0.0,1.0,98,0.00,,,0.00,Rainwise IP-100,2013-09-30 23:20:00,
2013-09-30 19:25:00,53.1,52.0,30.03,WNW,292,1.6,2.0,98,0.00,,,0.00,Rainwise IP-100,2013-09-30 23:25:00,
2013-09-30 19:30:00,53.2,52.0,30.03,WNW,292,0.0,2.0,98,0.00,,,0.00,Rainwise IP-100,2013-09-30 23:30:00,
2013-09-30 19:35:00,53.4,53.0,30.02,WNW,292,0.0,1.0,98,0.00,,,0.00,Rainwise IP-100,2013-09-30 23:35:00,
2013-09-30 19:40:00,53.5,53.0,30.02,NNW,337,2.6,2.6,98,0.00,,,0.00,Rainwise IP-100,2013-09-30 23:40:00,
2013-09-30 19:45:00,53.5,53.0,30.02,North,360,2.1,4.0,98,0.00,,,0.00,Rainwise IP-100,2013-09-30 23:45:00,
2013-09-30 19:50:00,53.5,53.0,30.02,NW,315,0.0,4.0,98,0.00,,,0.00,Rainwise IP-100,2013-09-30 23:50:00,
2013-09-30 19:55:00,53.5,53.0,30.03,NNW,337,2.1,5.0,99,0.00,,,0.00,Rainwise IP-100,2013-09-30 23:55:00,
2013-09-30 20:00:00,53.5,53.0,30.03,NNW,337,2.3,3.0,99,0.00,,,0.00,Rainwise IP-100,2013-10-01 00:00:00,
2013-09-30 20:05:00,53.5,53.0,30.03,NNE,22,0.0,3.0,99,0.00,,,0.00,Rainwise IP-100,2013-10-01 00:05:00,
2013-09-30 20:10:00,53.5,53.0,30.03,WNW,292,0.0,0.0,99,0.00,,,0.00,Rainwise IP-100,2013-10-01 00:10:00,
2013-09-30 20:15:00,53.4,53.0,30.03,WSW,247,0.0,1.0,99,0.00,,,0.00,Rainwise IP-100,2013-10-01 00:15:00,
2013-09-30 20:20:00,53.4,53.0,30.03,WSW,247,0.0,0.0,99,0.00,,,0.00,Rainwise IP-100,2013-10-01 00:20:00,
2013-09-30 20:25:00,53.5,53.0,30.03,WSW,247,0.0,0.0,99,0.00,,,0.00,Rainwise IP-100,2013-10-01 00:25:00,
2013-09-30 20:30:00,53.5,53.0,30.03,WSW,247,0.0,0.0,99,0.00,,,0.00,Rainwise IP-100,2013-10-01 00:30:00,
2013-09-30 20:35:00,53.6,53.0,30.03,ENE,67,2.1,2.1,99,0.00,,,0.00,Rainwise IP-100,2013-10-01 00:35:00,
2013-09-30 20:40:00,53.7,53.0,30.03,ENE,67,0.0,2.0,99,0.00,,,0.00,Rainwise IP-100,2013-10-01 00:40:00,
2013-09-30 20:45:00,53.8,53.0,30.03,NNE,22,0.0,1.0,99,0.00,,,0.00,Rainwise IP-100,2013-10-01 00:45:00,
2013-09-30 20:50:00,53.8,53.0,30.03,SE,135,3.7,3.7,99,0.00,,,0.00,Rainwise IP-100,2013-10-01 00:50:00,
2013-09-30 20:55:00,53.9,53.0,30.03,SE,135,4.0,5.0,98,0.00,,,0.00,Rainwise IP-100,2013-10-01 00:55:00,
2013-09-30 21:00:00,54.0,53.0,30.04,SSE,157,1.9,7.0,98,0.00,,,0.00,Rainwise IP-100,2013-10-01 01:00:00,
2013-09-30 21:05:00,53.9,53.0,30.03,SSE,157,2.6,5.0,98,0.00,,,0.00,Rainwise IP-100,2013-10-01 01:05:00,
2013-09-30 21:10:00,53.8,53.0,30.04,SSE,157,6.5,6.5,98,0.00,,,0.00,Rainwise IP-100,2013-10-01 01:10:00,
2013-09-30 21:15:00,53.7,53.0,30.04,SSE,157,3.5,7.0,97,0.00,,,0.00,Rainwise IP-100,2013-10-01 01:15:00,
2013-09-30 21:20:00,53.7,52.0,30.03,SSE,157,3.3,4.0,96,0.00,,,0.00,Rainwise IP-100,2013-10-01 01:20:00,
2013-09-30 21:25:00,53.8,52.0,30.03,SSE,157,0.0,3.0,95,0.00,,,0.00,Rainwise IP-100,2013-10-01 01:25:00,
2013-09-30 21:30:00,53.9,52.0,30.03,SSE,157,0.0,0.0,94,0.00,,,0.00,Rainwise IP-100,2013-10-01 01:30:00,
2013-09-30 21:35:00,53.9,52.0,30.03,SSE,157,0.0,1.0,94,0.00,,,0.00,Rainwise IP-100,2013-10-01 01:35:00,
2013-09-30 21:40:00,53.8,52.0,30.03,SSE,157,0.0,0.0,94,0.00,,,0.00,Rainwise IP-100,2013-10-01 01:40:00,
2013-09-30 21:45:00,53.7,52.0,30.03,NW,315,1.9,3.0,94,0.00,,,0.00,Rainwise IP-100,2013-10-01 01:45:00,
2013-09-30 21:50:00,53.7,52.0,30.03,NW,315,2.6,2.6,94,0.00,,,0.00,Rainwise IP-100,2013-10-01 01:50:00,
2013-09-30 21:55:00,53.7,52.0,30.03,NW,315,1.4,3.0,95,0.00,,,0.00,Rainwise IP-100,2013-10-01 01:55:00,
2013-09-30 22:00:00,53.6,52.0,30.03,WSW,247,0.0,3.0,95,0.00,,,0.00,Rainwise IP-100,2013-10-01 02:00:00,
2013-09-30 22:05:00,53.5,52.0,30.03,SW,225,0.0,3.0,96,0.00,,,0.00,Rainwise IP-100,2013-10-01 02:05:00,
2013-09-30 22:10:00,53.5,52.0,30.03,SW,225,0.0,0.0,96,0.00,,,0.00,Rainwise IP-100,2013-10-01 02:10:00,
2013-09-30 22:15:00,53.5,52.0,30.03,SSE,157,3.3,3.3,95,0.00,,,0.00,Rainwise IP-100,2013-10-01 02:15:00,
2013-09-30 22:20:00,53.6,52.0,30.03,NNW,337,1.6,3.0,94,0.00,,,0.00,Rainwise IP-100,2013-10-01 02:20:00,
2013-09-30 22:25:00,53.7,52.0,30.02,NNW,337,0.0,2.0,94,0.00,,,0.00,Rainwise IP-100,2013-10-01 02:25:00,
2013-09-30 22:30:00,53.7,52.0,30.02,NNW,337,0.0,1.0,94,0.00,,,0.00,Rainwise IP-100,2013-10-01 02:30:00,
2013-09-30 22:35:00,53.6,52.0,30.03,NNW,337,0.0,1.0,94,0.00,,,0.00,Rainwise IP-100,2013-10-01 02:35:00,
2013-09-30 22:40:00,53.6,52.0,30.02,NNW,337,1.6,3.0,95,0.00,,,0.00,Rainwise IP-100,2013-10-01 02:40:00,
2013-09-30 22:45:00,53.5,52.0,30.02,WSW,247,0.0,2.0,95,0.00,,,0.00,Rainwise IP-100,2013-10-01 02:45:00,
2013-09-30 22:50:00,53.3,51.0,30.02,WSW,247,0.0,1.0,95,0.00,,,0.00,Rainwise IP-100,2013-10-01 02:50:00,
2013-09-30 22:55:00,53.1,51.0,30.02,WSW,247,0.0,0.0,95,0.00,,,0.00,Rainwise IP-100,2013-10-01 02:55:00,
2013-09-30 23:00:00,53.0,51.0,30.02,WSW,247,0.0,1.0,96,0.00,,,0.00,Rainwise IP-100,2013-10-01 03:00:00,
2013-09-30 23:05:00,52.9,51.0,30.02,WSW,247,0.0,1.0,96,0.00,,,0.00,Rainwise IP-100,2013-10-01 03:05:00,
2013-09-30 23:10:00,52.8,51.0,30.02,WSW,247,0.0,1.0,95,0.00,,,0.00,Rainwise IP-100,2013-10-01 03:10:00,
2013-09-30 23:15:00,52.8,51.0,30.02,WSW,247,0.0,1.0,95,0.00,,,0.00,Rainwise IP-100,2013-10-01 03:15:00,
2013-09-30 23:20:00,52.8,51.0,30.02,WSW,247,0.0,2.0,95,0.00,,,0.00,Rainwise IP-100,2013-10-01 03:20:00,
2013-09-30 23:25:00,53.0,51.0,30.02,WSW,247,0.0,3.0,94,0.00,,,0.00,Rainwise IP-100,2013-10-01 03:25:00,
2013-09-30 23:30:00,53.1,51.0,30.02,South,180,0.0,1.0,94,0.00,,,0.00,Rainwise IP-100,2013-10-01 03:30:00,
2013-09-30 23:35:00,53.2,51.0,30.01,WSW,247,0.0,1.0,94,0.00,,,0.00,Rainwise IP-100,2013-10-01 03:35:00,
2013-09-30 23:40:00,53.1,50.0,30.02,WSW,247,0.0,1.0,93,0.00,,,0.00,Rainwise IP-100,2013-10-01 03:40:00,
2013-09-30 23:45:00,53.0,50.0,30.01,WSW,247,0.0,0.0,93,0.00,,,0.00,Rainwise IP-100,2013-10-01 03:45:00,
2013-09-30 23:50:00,52.9,50.0,30.01,WSW,247,0.0,0.0,93,0.00,,,0.00,Rainwise IP-100,2013-10-01 03:50:00,
2013-09-30 23:55:00,52.9,51.0,30.01,WSW,247,0.0,0.0,94,0.00,,,0.00,Rainwise IP-100,2013-10-01 03:55:00,